Location: Caltech
(34.1382°N, 118.1253°W)
Time: 23:53:55
(UTC-08:00)

CZ-2C R/B - Visible Passes

Search period start: 29 January 2015 00:00
Search period end: 08 February 2015 00:00
Orbit: 669 x 786 km, 98.1° (Epoch: 28 January)

Date Brightness Start Highest point End Pass type
(mag) Time Alt. Az. Time Alt. Az. Time Alt. Az.
29 Jan 2.7 18:18:23 10° SE 18:23:20 48° ENE 18:28:18 10° N visible
29 Jan 5.2 19:58:29 10° SW 20:01:53 17° W 20:05:03 10° NW visible
30 Jan 3.3 19:08:51 10° S 19:13:55 51° W 19:18:56 10° NNW visible
31 Jan 2.6 18:21:19 10° SSE 18:26:19 52° ENE 18:31:19 10° N visible
31 Jan 5.3 20:01:45 10° SW 20:04:55 15° W 20:07:48 10° WNW visible
01 Feb 3.5 19:11:54 10° S 19:16:54 47° W 19:21:51 10° NNW visible
02 Feb 2.6 18:24:14 10° SSE 18:29:17 56° ENE 18:34:18 10° N visible
02 Feb 5.4 20:05:04 10° SW 20:07:56 14° W 20:10:29 10° WNW visible
03 Feb 3.7 19:14:57 10° S 19:19:53 44° W 19:24:46 10° NNW visible
04 Feb 2.5 18:27:10 10° SSE 18:32:14 60° ENE 18:37:17 10° N visible
04 Feb 5.5 20:08:26 10° WSW 20:10:57 13° W 20:13:07 10° WNW visible
05 Feb 3.8 19:18:00 10° SSW 19:22:53 40° W 19:27:39 10° NNW visible
06 Feb 2.4 18:30:07 10° SSE 18:35:12 65° ENE 18:40:15 10° N visible
06 Feb 5.6 20:11:54 10° WSW 20:13:57 12° W 20:15:38 10° WNW visible
07 Feb 4.0 19:21:05 10° SSW 19:25:51 37° W 19:30:32 10° NNW visible
